IGO274E VOBL-VOML

Flight info

Callsign IGO274E
Flight time 0h 29m
Altitude 20000
Route PEXEG7B PEXEG W81 MML DCT
Aircraft A20N/M-SDE2E3FGHIRWXY/LB1

Departure

Time 2026-05-04 10:08
Airport Kempegowda International Airport Bengaluru (VOBL)

Arrival

Time 2026-05-04 10:37
Airport Mangaluru International Airport (VOML)
Time Latitude Longitude Altitude Speed Heading
2026-05-04 09:42 13.20183 77.70997 2968 ft 0 kts 180°
2026-05-04 09:51 13.20184 77.70997 2968 ft 0 kts 180°
2026-05-04 09:51 13.20195 77.70997 2967 ft 2 kts 180°
2026-05-04 09:52 13.20210 77.70997 2967 ft 2 kts 180°
2026-05-04 09:52 13.20225 77.70997 2967 ft 1 kts 180°
2026-05-04 09:52 13.20235 77.70997 2967 ft 2 kts 168°
2026-05-04 09:52 13.20249 77.70990 2967 ft 2 kts 139°
2026-05-04 09:53 13.20258 77.70978 2967 ft 2 kts 111°
2026-05-04 09:53 13.20260 77.70969 2967 ft 0 kts 94°
2026-05-04 09:53 13.20260 77.70961 2968 ft 0 kts 91°
2026-05-04 09:54 13.20260 77.70962 2968 ft 0 kts 91°
2026-05-04 09:55 13.20260 77.70976 2967 ft 3 kts 91°
2026-05-04 09:56 13.20259 77.71018 2966 ft 8 kts 92°
2026-05-04 09:56 13.20259 77.71091 2964 ft 12 kts 90°
2026-05-04 09:56 13.20301 77.71175 2959 ft 17 kts
2026-05-04 09:56 13.20442 77.71175 2951 ft 22 kts 360°
2026-05-04 09:57 13.20523 77.71286 2945 ft 23 kts 90°
2026-05-04 09:57 13.20522 77.71456 2941 ft 24 kts 91°
2026-05-04 09:57 13.20523 77.71623 2941 ft 23 kts 88°
2026-05-04 09:57 13.20518 77.71783 2941 ft 21 kts 91°
2026-05-04 09:58 13.20518 77.71936 2941 ft 20 kts 90°
2026-05-04 09:58 13.20516 77.72080 2941 ft 19 kts 90°
2026-05-04 09:58 13.20515 77.72219 2940 ft 19 kts 90°
2026-05-04 10:00 13.20577 77.72282 2938 ft 0 kts
2026-05-04 10:05 13.20578 77.72282 2938 ft 0 kts
2026-05-04 10:05 13.20602 77.72282 2938 ft 6 kts
2026-05-04 10:06 13.20665 77.72264 2938 ft 13 kts 316°
2026-05-04 10:06 13.20688 77.72124 2938 ft 39 kts 272°
2026-05-04 10:06 13.20694 77.71601 2934 ft 106 kts 269°
2026-05-04 10:08 13.22927 77.64948 5170 ft 200 kts 303°
2026-05-04 10:08 13.23682 77.63671 5466 ft 214 kts 302°
2026-05-04 10:08 13.24479 77.62296 5694 ft 233 kts 302°
2026-05-04 10:08 13.25323 77.60813 6008 ft 250 kts 301°
2026-05-04 10:09 13.26232 77.59202 6325 ft 267 kts 301°
2026-05-04 10:09 13.27187 77.57501 6702 ft 281 kts 301°
2026-05-04 10:09 13.28163 77.55761 7326 ft 285 kts 301°
2026-05-04 10:09 13.29154 77.53992 8014 ft 287 kts 301°
2026-05-04 10:10 13.30128 77.52200 8680 ft 291 kts 296°
2026-05-04 10:10 13.30673 77.50210 9328 ft 296 kts 276°
2026-05-04 10:10 13.30566 77.48070 10014 ft 300 kts 263°
2026-05-04 10:10 13.30231 77.45942 10519 ft 310 kts 262°
2026-05-04 10:11 13.29850 77.43700 10809 ft 327 kts 261°
2026-05-04 10:11 13.29453 77.41348 11093 ft 342 kts 262°
2026-05-04 10:11 13.29045 77.38888 11364 ft 358 kts 262°
2026-05-04 10:11 13.28622 77.36300 11626 ft 372 kts 262°
2026-05-04 10:12 13.28231 77.33637 11861 ft 385 kts 264°
2026-05-04 10:12 13.27967 77.30846 12092 ft 398 kts 266°
2026-05-04 10:12 13.27732 77.27968 12305 ft 410 kts 266°
2026-05-04 10:12 13.27239 77.25150 13434 ft 395 kts 253°
2026-05-04 10:13 13.26462 77.22532 14651 ft 379 kts 260°
2026-05-04 10:13 13.26228 77.19834 14943 ft 388 kts 270°
2026-05-04 10:13 13.26221 77.17009 15171 ft 401 kts 271°
2026-05-04 10:13 13.26177 77.14122 15381 ft 413 kts 269°
2026-05-04 10:14 13.26053 77.11114 15582 ft 424 kts 268°
2026-05-04 10:14 13.25868 77.08088 15771 ft 434 kts 267°
2026-05-04 10:16 13.23922 76.85626 18374 ft 462 kts 265°
2026-05-04 10:16 13.23620 76.82354 18749 ft 465 kts 265°
2026-05-04 10:16 13.23311 76.79022 19123 ft 468 kts 265°
2026-05-04 10:16 13.23001 76.75702 19493 ft 471 kts 265°
2026-05-04 10:17 13.22689 76.72355 19823 ft 473 kts 265°
2026-05-04 10:17 13.22374 76.68994 19879 ft 474 kts 265°
2026-05-04 10:19 13.20165 76.45474 19882 ft 473 kts 265°
2026-05-04 10:19 13.19850 76.42129 19881 ft 473 kts 265°
2026-05-04 10:19 13.19530 76.38740 19881 ft 473 kts 265°
2026-05-04 10:19 13.19215 76.35416 19881 ft 473 kts 265°
2026-05-04 10:20 13.18895 76.32036 19880 ft 473 kts 265°
2026-05-04 10:20 13.18578 76.28677 19880 ft 473 kts 265°
2026-05-04 10:20 13.18259 76.25317 19880 ft 473 kts 265°
2026-05-04 10:20 13.17940 76.21959 19859 ft 474 kts 265°
2026-05-04 10:21 13.17619 76.18583 19199 ft 473 kts 265°
2026-05-04 10:21 13.17300 76.15246 18504 ft 467 kts 265°
2026-05-04 10:21 13.16987 76.11978 17864 ft 461 kts 265°
2026-05-04 10:21 13.16677 76.08743 17239 ft 454 kts 265°
2026-05-04 10:22 13.16065 76.02373 16013 ft 443 kts 265°
2026-05-04 10:22 13.15762 75.99232 15399 ft 437 kts 265°
2026-05-04 10:22 13.15465 75.96147 14789 ft 433 kts 265°
2026-05-04 10:23 13.15173 75.93117 14188 ft 428 kts 265°
2026-05-04 10:23 13.14881 75.90099 13581 ft 423 kts 265°
2026-05-04 10:25 13.12936 75.70100 10491 ft 366 kts 265°
2026-05-04 10:25 13.12686 75.67539 10315 ft 353 kts 265°
2026-05-04 10:25 13.12447 75.65097 10169 ft 340 kts 265°
2026-05-04 10:25 13.12214 75.62723 10048 ft 327 kts 265°
2026-05-04 10:26 13.11991 75.60448 9950 ft 313 kts 265°
2026-05-04 10:26 13.11777 75.58266 9868 ft 300 kts 265°
2026-05-04 10:26 13.11570 75.56165 9756 ft 291 kts 265°
2026-05-04 10:26 13.11369 75.54105 9400 ft 291 kts 265°
2026-05-04 10:27 13.11165 75.52034 9073 ft 289 kts 265°
2026-05-04 10:27 13.10966 75.50005 8761 ft 287 kts 266°
2026-05-04 10:27 13.10767 75.47977 8452 ft 284 kts 266°
2026-05-04 10:27 13.10570 75.45972 8147 ft 282 kts 266°
2026-05-04 10:28 13.10374 75.43980 7844 ft 280 kts 266°
2026-05-04 10:28 13.10179 75.41995 7542 ft 277 kts 266°
2026-05-04 10:28 13.09986 75.40037 7246 ft 275 kts 266°
2026-05-04 10:28 13.09794 75.38092 6949 ft 273 kts 265°
2026-05-04 10:29 13.09485 75.36195 6706 ft 269 kts 260°
2026-05-04 10:29 13.09078 75.34312 6523 ft 276 kts 259°
2026-05-04 10:29 13.08649 75.32362 6337 ft 281 kts 259°
2026-05-04 10:29 13.08226 75.30408 6133 ft 281 kts 259°
2026-05-04 10:30 13.07806 75.28442 5871 ft 280 kts 259°
2026-05-04 10:30 13.07395 75.26500 5587 ft 279 kts 259°
2026-05-04 10:30 13.06989 75.24567 5295 ft 277 kts 259°
2026-05-04 10:30 13.06580 75.22616 4994 ft 276 kts 259°
2026-05-04 10:31 13.06179 75.20697 4695 ft 274 kts 259°
2026-05-04 10:31 13.05784 75.18806 4399 ft 273 kts 259°
2026-05-04 10:32 13.03455 75.07680 2913 ft 244 kts 259°
2026-05-04 10:33 13.03109 75.06035 2881 ft 230 kts 259°
2026-05-04 10:33 13.02778 75.04459 2849 ft 224 kts 259°
2026-05-04 10:33 13.02451 75.02895 2800 ft 222 kts 259°
2026-05-04 10:33 13.02134 75.01378 2667 ft 213 kts 259°
2026-05-04 10:34 13.01811 74.99921 2558 ft 203 kts 255°
2026-05-04 10:34 13.01335 74.98612 2420 ft 191 kts 247°
2026-05-04 10:34 13.00740 74.97433 2118 ft 182 kts 243°
2026-05-04 10:34 13.00104 74.96343 1850 ft 173 kts 240°
2026-05-04 10:35 12.99479 74.95323 1621 ft 162 kts 240°
2026-05-04 10:35 12.98902 74.94378 1396 ft 150 kts 240°
2026-05-04 10:35 12.98358 74.93478 1204 ft 147 kts 240°
2026-05-04 10:35 12.97825 74.92593 1022 ft 147 kts 240°
2026-05-04 10:36 12.97288 74.91705 858 ft 146 kts 240°
2026-05-04 10:36 12.96749 74.90823 676 ft 146 kts 240°
2026-05-04 10:36 12.96221 74.89933 450 ft 144 kts 240°
2026-05-04 10:36 12.95709 74.89086 335 ft 130 kts 236°
2026-05-04 10:37 12.95371 74.88522 310 ft 49 kts 238°
2026-05-04 10:37 12.95253 74.88326 312 ft 29 kts 239°
2026-05-04 10:37 12.95155 74.88155 314 ft 25 kts 241°
2026-05-04 10:37 12.95159 74.88045 313 ft 14 kts 332°
2026-05-04 10:39 12.94981 74.87470 298 ft 10 kts 238°
2026-05-04 10:39 12.94932 74.87382 289 ft 17 kts 241°
2026-05-04 10:39 12.94908 74.87318 283 ft 6 kts 296°
2026-05-04 10:40 12.94932 74.87311 283 ft 3 kts
2026-05-04 10:40 12.94959 74.87310 282 ft 1 kts 353°
2026-05-04 10:49 12.94960 74.87310 282 ft 0 kts 353°
2026-05-04 10:49 12.94961 74.87310 282 ft 0 kts 353°
2026-05-04 10:51 12.94945 74.87312 283 ft 2 kts 353°
2026-05-04 10:52 12.94931 74.87314 283 ft 2 kts 353°
2026-05-04 10:52 12.94916 74.87315 283 ft 2 kts 358°
2026-05-04 10:52 12.94901 74.87312 283 ft 2 kts 25°
2026-05-04 10:54 12.94880 74.87292 281 ft 0 kts 59°
2026-05-04 10:56 12.95171 74.88039 313 ft 25 kts 142°
2026-05-04 10:56 12.95153 74.88165 314 ft 23 kts 58°
2026-05-04 10:56 12.95252 74.88326 312 ft 28 kts 57°
2026-05-04 10:57 12.95364 74.88514 310 ft 33 kts 58°
2026-05-04 10:57 12.95492 74.88724 313 ft 36 kts 58°
2026-05-04 10:57 12.95625 74.88937 326 ft 34 kts 60°
2026-05-04 10:57 12.95750 74.89149 335 ft 34 kts 58°
2026-05-04 10:58 12.95883 74.89367 331 ft 38 kts 57°
2026-05-04 10:58 12.96008 74.89525 321 ft 16 kts 57°
2026-05-04 10:58 12.95984 74.89539 320 ft 5 kts 236°
2026-05-04 10:58 12.95939 74.89462 325 ft 40 kts 238°
2026-05-04 10:59 12.95663 74.89005 330 ft 108 kts 239°
2026-05-04 10:59 12.95138 74.88139 341 ft 169 kts 239°
2026-05-04 10:59 12.94501 74.87102 1070 ft 173 kts 239°
2026-05-04 10:59 12.93857 74.86052 1548 ft 182 kts 240°
2026-05-04 11:00 12.93109 74.84943 1847 ft 200 kts 227°
2026-05-04 11:01 12.84572 74.92001 6201 ft 290 kts 153°
2026-05-04 11:02 12.82769 74.92947 6992 ft 293 kts 152°
2026-05-04 11:02 12.80985 74.93939 7792 ft 296 kts 150°
2026-05-04 11:05 12.51536 75.12695 12884 ft 412 kts 147°
2026-05-04 11:06 12.49114 75.14254 13223 ft 413 kts 146°
2026-05-04 11:06 12.46676 75.15823 13527 ft 415 kts 146°
2026-05-04 11:06 12.44238 75.17393 13823 ft 416 kts 146°
2026-05-04 11:06 12.41800 75.18962 14115 ft 418 kts 146°
2026-05-04 11:08 12.24463 75.30115 14797 ft 421 kts 146°
2026-05-04 11:10 12.07613 75.42017 14801 ft 421 kts 143°
2026-05-04 11:12 11.90664 75.53753 14799 ft 422 kts 149°
2026-05-04 11:12 11.88053 75.55148 14796 ft 422 kts 152°
2026-05-04 11:12 11.85320 75.56508 14797 ft 422 kts 153°
2026-05-04 11:12 11.82554 75.57873 14797 ft 422 kts 153°
2026-05-04 11:13 11.79835 75.59218 14797 ft 421 kts 153°
2026-05-04 11:13 11.77050 75.60600 14798 ft 421 kts 152°
2026-05-04 11:13 11.74387 75.61925 14798 ft 421 kts 152°
2026-05-04 11:13 11.71660 75.63284 14797 ft 421 kts 152°
2026-05-04 11:14 11.70765 75.63730 14797 ft 421 kts 152°
2026-05-04 11:16 11.46700 75.77505 10059 ft 350 kts 133°
2026-05-04 11:16 11.45059 75.79215 9939 ft 326 kts 133°
2026-05-04 11:16 11.43522 75.80823 9852 ft 313 kts 133°
2026-05-04 11:17 11.42018 75.82394 9623 ft 305 kts 133°
2026-05-04 11:17 11.40551 75.83922 9261 ft 303 kts 133°
2026-05-04 11:19 11.30513 75.94380 6941 ft 291 kts 128°
2026-05-04 11:19 11.29296 75.96040 6616 ft 293 kts 124°
2026-05-04 11:19 11.28123 75.97754 6287 ft 292 kts 123°
2026-05-04 11:19 11.26980 75.99452 6005 ft 291 kts 123°
2026-05-04 11:20 11.25846 76.01149 5730 ft 290 kts 123°
2026-05-04 11:20 11.24704 76.02865 5455 ft 294 kts 123°
2026-05-04 11:20 11.23567 76.04582 5181 ft 294 kts 123°
2026-05-04 11:20 11.22419 76.06323 4903 ft 293 kts 123°
2026-05-04 11:22 11.13321 76.16029 3102 ft 259 kts 199°
2026-05-04 11:22 11.11779 76.15254 3087 ft 238 kts 222°
2026-05-04 11:23 11.10729 76.14069 3075 ft 219 kts 242°
2026-05-04 11:23 11.10207 76.12688 3052 ft 202 kts 268°
2026-05-04 11:24 11.11654 76.05855 2154 ft 146 kts 281°
2026-05-04 11:25 11.11845 76.04832 1949 ft 146 kts 281°
2026-05-04 11:25 11.12036 76.03818 1744 ft 145 kts 280°
2026-05-04 11:25 11.12225 76.02813 1537 ft 145 kts 280°
2026-05-04 11:26 11.12606 76.00805 1125 ft 144 kts 280°